Temp
-7 -7 -7 -7 -7 -7 -7 -7 -7 -7 -7 -7 -7 -7 -7 -6 -7 -7 -7 -7 -7 -6 -7 -7 -7 -8 -7 -7 -7 -7 -7 -8 -9 -9 -9 -9 -10 -9 -9 -9 -8 -8 -7 -7 -7
-7 -7 -7 -7 -7 -7 -7 -7 -7 -7 -7 -7 -7 -7 -7 -6 -7 -7 -7 -7 -7 -7 -6 -6 -7 -7 -7 -7 -7 -7 -6 -7 -9 -10 -9 -9 -10 -9 -10 -9 -8 -8 -9 -8 -8
-7 -7 -7 -7 -7 -7 -7 -7 -7 -7 -7 -7 -7 -7 -7 -7 -7 -7 -7 -7 -7 -7 -7 -7 -7 -7 -7 -7 -7 -6 -6 -8 -9 -10 -10 -9 -9 -10 -9 -9 -7 -9 -9 -9 -8
-7 -7 -7 -7 -7 -7 -7 -7 -7 -7 -7 -7 -7 -7 -7 -7 -7 -7 -7 -7 -7 -7 -7 -7 -7 -7 -7 -7 -7 -7 -7 -8 -9 -10 -10 -10 -10 -10 -10 -9 -7 -9 -10 -9 -8
-7 -7 -7 -7 -7 -7 -7 -7 -7 -7 -7 -7 -7 -7 -7 -7 -7 -7 -7 -7 -7 -7 -7 -7 -7 -7 -7 -7 -7 -7 -7 -8 -9 -10 -9 -9 -10 -9 -10 -9 -8 -9 -9 -9 -9
-7 -7 -7 -7 -7 -7 -7 -7 -7 -7 -7 -7 -7 -7 -7 -7 -7 -7 -7 -7 -7 -7 -7 -7 -7 -7 -7 -7 -7 -7 -7 -7 -9 -9 -8 -8 -9 -8 -9 -9 -9 -9 -10 -9 -8
-8 -7 -7 -7 -7 -7 -7 -7 -7 -7 -7 -7 -7 -7 -7 -7 -7 -7 -7 -7 -7 -7 -7 -7 -7 -7 -7 -7 -7 -7 -7 -7 -8 -8 -8 -8 -8 -9 -9 -9 -9 -10 -9 -8 -9
-8 -8 -8 -8 -7 -7 -7 -7 -7 -7 -7 -7 -7 -7 -7 -7 -7 -7 -7 -7 -8 -8 -8 -7 -7 -7 -7 -8 -7 -7 -7 -7 -8 -9 -9 -9 -9 -9 -9 -9 -10 -9 -9 -9 -10
-9 -8 -8 -8 -8 -8 -7 -7 -7 -7 -7 -7 -7 -7 -7 -7 -7 -8 -8 -7 -8 -8 -8 -8 -7 -8 -8 -8 -8 -7 -7 -8 -8 -9 -9 -9 -9 -9 -9 -9 -10 -9 -9 -10 -9
-9 -9 -9 -9 -8 -8 -8 -8 -7 -7 -7 -7 -7 -7 -7 -7 -7 -7 -8 -8 -8 -8 -8 -8 -8 -8 -8 -8 -8 -8 -9 -9 -10 -10 -10 -9 -9 -9 -9 -10 -9 -9 -10 -10 -10
-10 -10 -10 -9 -9 -9 -8 -8 -8 -7 -7 -7 -8 -8 -7 -8 -8 -8 -8 -8 -8 -8 -8 -8 -8 -8 -8 -8 -9 -9 -9 -8 -9 -11 -11 -11 -10 -10 -10 -9 -10 -10 -10 -10 -10
-11 -11 -10 -10 -10 -9 -9 -9 -8 -8 -8 -8 -8 -8 -8 -8 -8 -8 -8 -8 -8 -8 -8 -8 -8 -9 -8 -8 -9 -9 -10 -9 -10 -10 -11 -10 -10 -10 -10 -10 -10 -10 -10 -10 -11
-11 -11 -11 -11 -10 -10 -10 -9 -9 -8 -8 -10 -8 -9 -8 -8 -8 -9 -8 -8 -8 -8 -8 -8 -9 -8 -9 -8 -9 -9 -9 -10 -10 -10 -10 -10 -11 -11 -10 -10 -10 -10 -10 -10 -11
-11 -11 -11 -11 -11 -11 -10 -10 -9 -9 -9 -9 -9 -9 -10 -9 -9 -9 -9 -8 -8 -8 -8 -8 -9 -9 -9 -8 -9 -9 -9 -11 -11 -11 -11 -11 -10 -11 -11 -11 -10 -10 -10 -11 -11
-12 -11 -11 -11 -11 -11 -11 -10 -10 -10 -10 -10 -10 -10 -10 -10 -9 -9 -9 -9 -9 -9 -8 -9 -9 -9 -9 -9 -10 -9 -10 -10 -11 -11 -11 -11 -11 -11 -11 -11 -11 -11 -11 -11 -11
-12 -11 -11 -11 -11 -11 -11 -11 -11 -11 -11 -11 -10 -10 -10 -11 -11 -11 -9 -9 -9 -9 -9 -9 -10 -9 -9 -9 -10 -9 -11 -10 -10 -11 -11 -11 -11 -11 -11 -10 -10 -11 -10 -10 -11
-12 -12 -12 -12 -11 -11 -11 -11 -11 -11 -12 -11 -11 -10 -9 -10 -12 -12 -11 -10 -10 -9 -9 -9 -10 -10 -9 -9 -9 -11 -11 -10 -10 -10 -11 -11 -11 -11 -11 -11 -11 -11 -10 -11 -11
-12 -12 -12 -12 -12 -12 -12 -12 -12 -12 -12 -12 -12 -12 -12 -11 -12 -13 -13 -11 -10 -10 -10 -10 -10 -10 -10 -10 -10 -11 -11 -11 -10 -10 -10 -11 -11 -11 -11 -11 -11 -11 -11 -10 -11
-13 -12 -12 -12 -12 -12 -12 -12 -12 -12 -12 -12 -12 -13 -13 -14 -12 -11 -12 -12 -12 -12 -11 -11 -9 -11 -10 -11 -11 -12 -11 -11 -11 -11 -11 -10 -11 -11 -11 -11 -10 -10 -10 -11 -11
-13 -13 -13 -13 -13 -13 -13 -13 -13 -13 -13 -13 -12 -13 -13 -14 -13 -12 -12 -12 -13 -14 -14 -12 -11 -11 -11 -11 -11 -12 -12 -12 -12 -12 -12 -11 -11 -11 -11 -11 -11 -10 -11 -11 -11
-13 -13 -13 -13 -13 -13 -13 -13 -13 -13 -13 -13 -13 -13 -13 -13 -13 -13 -12 -12 -13 -14 -14 -14 -13 -11 -12 -12 -11 -12 -12 -12 -12 -12 -12 -12 -11 -11 -11 -11 -11 -11 -10 -10 -11
-13 -13 -13 -13 -13 -13 -13 -13 -13 -13 -14 -14 -13 -14 -13 -14 -13 -13 -13 -12 -14 -14 -14 -14 -13 -12 -12 -12 -12 -12 -12 -12 -12 -12 -12 -12 -11 -11 -11 -11 -10 -10 -10 -11 -11
-13 -13 -13 -13 -13 -13 -13 -14 -14 -14 -14 -13 -14 -14 -14 -14 -14 -14 -14 -13 -13 -13 -14 -14 -13 -13 -12 -13 -12 -12 -12 -12 -13 -12 -12 -12 -11 -11 -11 -11 -11 -11 -11 -11 -11
-14 -14 -14 -13 -13 -13 -13 -14 -14 -14 -14 -13 -14 -14 -14 -14 -14 -13 -14 -14 -14 -13 -13 -13 -13 -13 -12 -12 -12 -12 -12 -13 -13 -12 -12 -12 -12 -12 -12 -11 -11 -11 -11 -11 -11
-14 -14 -14 -14 -14 -14 -14 -14 -13 -14 -14 -14 -14 -15 -15 -15 -15 -15 -15 -14 -15 -14 -14 -13 -12 -12 -12 -12 -13 -12 -12 -13 -13 -12 -12 -12 -12 -13 -12 -12 -11 -11 -11 -11 -11
-14 -14 -14 -15 -15 -14 -14 -14 -14 -14 -14 -14 -15 -15 -16 -15 -15 -15 -15 -15 -14 -14 -15 -13 -12 -12 -13 -13 -13 -13 -13 -13 -13 -13 -13 -13 -13 -12 -12 -11 -11 -12 -12 -11 -12
-14 -14 -15 -15 -15 -15 -15 -15 -15 -14 -15 -15 -15 -15 -16 -17 -16 -15 -15 -16 -15 -15 -15 -14 -13 -13 -12 -13 -13 -13 -12 -13 -12 -12 -12 -12 -12 -13 -13 -12 -12 -12 -12 -12 -12
Height
5868 5868 5868 5867 5867 5866 5865 5864 5864 5864 5863 5863 5863 5864 5864 5865 5866 5865 5866 5870 5870 5873 5875 5878 5880 5882 5886 5888 5890 5891 5896 5898 5898 5893 5887 5882 5884 5890 5893 5893 5893 5893 5893 5892 5889
5866 5867 5866 5865 5865 5864 5863 5863 5862 5861 5860 5860 5860 5861 5861 5861 5862 5862 5864 5864 5867 5869 5871 5873 5875 5879 5883 5884 5886 5888 5892 5895 5894 5890 5883 5883 5885 5889 5889 5891 5891 5890 5889 5891 5888
5864 5864 5863 5863 5862 5862 5862 5861 5860 5859 5858 5857 5858 5858 5858 5858 5858 5859 5860 5861 5863 5865 5867 5868 5872 5876 5879 5880 5883 5885 5888 5889 5890 5886 5881 5882 5884 5888 5890 5890 5893 5889 5888 5886 5887
5861 5861 5860 5860 5859 5859 5859 5859 5858 5857 5856 5855 5855 5854 5855 5855 5856 5855 5856 5858 5859 5861 5863 5865 5868 5871 5874 5876 5877 5881 5883 5885 5884 5878 5876 5879 5882 5886 5886 5887 5887 5888 5888 5888 5887
5858 5858 5857 5856 5856 5856 5856 5855 5855 5854 5854 5853 5852 5852 5851 5852 5852 5851 5853 5855 5856 5858 5860 5862 5865 5867 5869 5870 5873 5877 5879 5880 5879 5874 5875 5878 5880 5882 5884 5883 5882 5883 5887 5887 5885
5855 5855 5854 5854 5853 5853 5852 5851 5851 5851 5851 5850 5849 5849 5849 5849 5848 5848 5850 5852 5853 5855 5857 5859 5859 5861 5865 5866 5870 5872 5874 5875 5874 5872 5874 5876 5877 5877 5879 5878 5878 5881 5885 5886 5885
5852 5851 5851 5851 5850 5849 5849 5848 5847 5847 5847 5847 5847 5846 5846 5847 5845 5846 5847 5848 5849 5851 5853 5854 5855 5859 5861 5865 5867 5870 5873 5874 5872 5867 5872 5873 5872 5873 5875 5875 5878 5879 5881 5881 5878
5848 5848 5847 5846 5846 5845 5845 5844 5844 5844 5844 5844 5844 5843 5843 5844 5844 5844 5845 5845 5846 5847 5849 5851 5853 5857 5860 5862 5865 5867 5871 5874 5872 5866 5869 5871 5870 5873 5874 5876 5877 5876 5879 5878 5877
5843 5843 5843 5841 5841 5840 5840 5840 5840 5839 5840 5841 5841 5840 5840 5839 5841 5842 5842 5843 5843 5844 5845 5847 5851 5854 5857 5858 5861 5864 5866 5869 5870 5872 5870 5869 5870 5872 5873 5874 5872 5872 5873 5875 5875
5839 5838 5838 5836 5836 5834 5834 5834 5834 5835 5835 5836 5837 5838 5837 5836 5836 5838 5840 5840 5841 5841 5842 5844 5846 5849 5852 5854 5859 5861 5861 5863 5866 5868 5866 5867 5868 5868 5870 5870 5870 5869 5867 5868 5869
5834 5833 5833 5831 5831 5829 5829 5829 5830 5831 5831 5831 5833 5831 5832 5833 5832 5834 5835 5836 5837 5838 5839 5840 5843 5846 5848 5850 5853 5855 5855 5858 5858 5860 5861 5860 5862 5863 5863 5862 5864 5862 5863 5862 5861
5830 5829 5828 5826 5826 5825 5823 5822 5823 5825 5828 5824 5825 5828 5826 5828 5830 5829 5831 5833 5833 5834 5835 5838 5840 5841 5842 5844 5846 5848 5851 5854 5855 5857 5857 5857 5857 5858 5858 5858 5856 5857 5857 5856 5855
5826 5825 5823 5822 5821 5820 5818 5818 5818 5819 5823 5819 5820 5822 5820 5825 5825 5826 5827 5827 5829 5830 5831 5833 5833 5834 5837 5839 5841 5844 5846 5849 5850 5851 5848 5850 5850 5852 5854 5853 5851 5850 5847 5847 5847
5820 5820 5818 5818 5817 5815 5814 5813 5812 5813 5815 5816 5817 5817 5816 5817 5820 5819 5822 5823 5824 5826 5826 5829 5828 5831 5832 5835 5837 5839 5843 5845 5845 5846 5847 5846 5845 5848 5848 5848 5848 5848 5848 5845 5847
5816 5814 5813 5812 5811 5811 5810 5809 5807 5808 5809 5809 5811 5811 5811 5813 5813 5814 5816 5816 5818 5820 5821 5828 5824 5825 5826 5831 5832 5836 5837 5840 5841 5841 5842 5842 5842 5844 5846 5844 5844 5843 5845 5844 5843
5810 5809 5808 5808 5807 5806 5805 5804 5803 5805 5803 5799 5798 5799 5802 5804 5805 5805 5809 5811 5812 5812 5815 5819 5819 5819 5823 5824 5825 5829 5832 5835 5836 5836 5836 5838 5838 5838 5840 5843 5842 5841 5839 5841 5842
5804 5804 5803 5803 5802 5801 5800 5799 5800 5798 5800 5796 5794 5794 5799 5800 5800 5801 5803 5804 5808 5808 5811 5814 5814 5816 5818 5819 5821 5823 5825 5828 5830 5830 5832 5834 5834 5833 5837 5838 5839 5836 5834 5837 5837
5799 5798 5797 5797 5797 5796 5796 5795 5794 5793 5794 5792 5791 5791 5793 5792 5792 5794 5797 5799 5802 5804 5805 5805 5808 5811 5815 5816 5819 5819 5821 5822 5823 5825 5828 5828 5827 5828 5829 5831 5831 5831 5832 5835 5834
5792 5793 5791 5791 5791 5791 5791 5789 5787 5787 5788 5788 5787 5787 5788 5786 5784 5786 5788 5789 5794 5797 5798 5798 5801 5805 5806 5809 5811 5814 5813 5820 5819 5820 5821 5823 5822 5822 5824 5824 5825 5824 5826 5829 5829
5784 5786 5785 5784 5784 5783 5783 5782 5780 5779 5781 5781 5782 5783 5784 5783 5779 5780 5781 5784 5786 5787 5789 5792 5792 5797 5801 5802 5803 5804 5812 5813 5812 5813 5814 5814 5814 5817 5818 5815 5820 5820 5820 5821 5819
5778 5778 5779 5778 5778 5778 5776 5775 5774 5772 5773 5773 5773 5773 5775 5777 5774 5774 5777 5780 5780 5780 5780 5780 5783 5791 5795 5793 5798 5801 5801 5805 5807 5809 5808 5808 5806 5811 5811 5814 5813 5813 5814 5813 5815
5771 5771 5770 5771 5771 5770 5769 5767 5766 5766 5766 5765 5762 5765 5766 5767 5770 5769 5771 5774 5769 5771 5772 5769 5772 5777 5784 5792 5791 5794 5797 5801 5800 5803 5802 5802 5802 5805 5805 5806 5806 5807 5809 5809 5812
5762 5762 5762 5762 5761 5761 5760 5759 5756 5756 5755 5755 5755 5755 5755 5756 5758 5759 5762 5765 5758 5755 5761 5767 5769 5770 5774 5780 5783 5786 5790 5790 5793 5796 5795 5797 5797 5798 5800 5800 5801 5801 5801 5801 5802
5755 5753 5750 5751 5751 5751 5751 5750 5747 5745 5744 5743 5746 5746 5747 5747 5745 5746 5749 5755 5750 5751 5754 5753 5758 5763 5764 5770 5779 5780 5783 5784 5787 5789 5790 5791 5792 5792 5792 5793 5794 5795 5796 5797 5798
5745 5745 5743 5741 5741 5740 5739 5738 5738 5738 5736 5734 5733 5735 5735 5735 5735 5734 5737 5741 5742 5739 5738 5746 5749 5750 5755 5760 5767 5773 5776 5777 5779 5781 5783 5786 5786 5786 5788 5788 5788 5788 5791 5791 5791
5733 5733 5732 5731 5730 5729 5727 5726 5725 5726 5725 5724 5724 5723 5721 5721 5722 5725 5725 5728 5729 5733 5727 5730 5736 5740 5745 5752 5757 5761 5766 5771 5773 5773 5775 5778 5780 5783 5782 5782 5783 5785 5784 5786 5785
5721 5721 5720 5718 5716 5716 5716 5714 5714 5714 5712 5710 5711 5711 5711 5710 5709 5712 5714 5716 5717 5717 5719 5719 5725 5728 5735 5740 5746 5749 5753 5762 5767 5768 5769 5770 5775 5776 5775 5777 5780 5780 5780 5781 5780
Wind_Speed
7 8 8 9 10 10 11 12 14 15 15 15 14 13 13 13 12 11 14 15 18 21 23 24 25 26 24 23 21 21 16 13 12 15 19 11 9 12 18 5 7 14 17 15 13
9 9 10 10 10 11 11 12 11 12 13 14 14 13 12 12 12 11 10 16 17 18 22 25 29 27 24 24 23 24 19 14 16 14 20 12 8 11 22 22 18 20 22 19 13
12 12 12 12 12 12 12 12 12 11 12 12 12 12 12 12 11 12 11 13 16 17 19 23 27 26 26 27 26 24 15 14 24 18 19 18 7 14 14 22 17 22 16 16 16
10 12 12 13 14 14 13 13 11 10 11 11 11 10 10 11 10 13 13 13 14 17 18 20 21 23 25 23 21 21 15 17 30 27 25 16 10 17 20 27 18 17 20 25 17
12 12 13 13 13 14 14 14 13 12 12 12 11 10 9 10 10 14 14 13 13 16 18 19 18 19 20 21 19 18 19 21 34 34 34 25 20 22 22 24 23 22 27 24 17
14 15 15 15 15 15 14 14 14 13 14 12 12 11 10 8 10 12 13 14 14 14 16 18 21 22 21 22 20 22 21 23 30 35 32 31 29 25 24 23 27 25 25 21 15
16 17 18 18 17 17 16 15 14 14 14 13 12 11 11 7 10 11 12 13 16 16 16 20 22 21 22 19 21 20 20 22 21 27 25 24 26 25 26 26 25 21 21 19 14
18 18 19 19 20 19 18 18 15 14 14 13 13 12 11 11 9 12 11 14 16 18 18 19 20 21 19 19 20 20 19 16 19 28 21 21 24 20 20 21 20 21 21 19 17
19 19 20 20 21 21 20 19 18 16 15 14 14 13 12 11 11 10 13 13 16 17 20 22 19 19 18 22 22 19 16 11 16 16 19 20 18 15 16 17 17 23 25 22 19
17 17 17 19 21 23 21 20 20 18 17 15 13 14 14 12 13 13 14 14 15 17 18 19 22 24 25 26 20 18 15 13 6 4 12 15 17 18 18 23 20 17 20 21 20
18 18 18 18 18 20 21 22 23 21 17 18 13 16 15 14 15 13 16 16 16 15 17 19 20 18 23 24 22 17 20 21 20 14 15 20 22 24 27 23 24 18 22 23 24
17 16 15 18 18 19 19 21 21 21 15 19 20 13 17 14 12 17 16 17 17 16 18 18 16 19 21 22 24 23 22 19 18 14 21 22 18 24 28 28 30 30 27 29 24
19 16 16 15 15 15 19 22 22 20 13 19 20 13 21 12 13 13 17 18 18 18 17 15 21 23 22 23 22 23 24 19 15 18 21 15 23 27 27 28 27 28 28 25 26
19 17 18 16 16 14 15 17 19 20 16 18 16 15 18 18 13 18 18 19 19 17 19 16 21 21 22 24 25 25 25 21 17 15 17 26 27 22 27 27 29 34 29 40 23
18 17 16 17 16 16 18 19 19 17 13 16 12 12 14 16 19 20 20 21 18 20 23 14 25 25 27 24 20 22 30 28 24 23 26 25 20 26 26 26 28 25 27 28 22
16 17 15 15 17 19 20 20 19 14 6 16 20 21 21 17 15 22 22 21 22 24 24 21 25 30 28 29 29 24 33 30 34 30 31 22 26 28 27 28 27 28 31 24 21
18 18 17 16 14 15 16 18 16 13 7 18 24 27 25 23 11 11 18 24 23 25 22 22 26 25 27 28 25 23 24 29 33 40 38 33 33 36 34 32 30 33 30 25 23
18 18 18 16 16 19 18 17 15 16 9 15 24 27 25 24 13 10 13 21 22 24 24 26 27 24 23 27 23 22 23 27 31 33 39 41 40 37 36 27 26 25 26 17 19
18 17 20 20 21 19 18 18 18 16 15 15 20 28 20 17 26 24 22 17 14 18 23 26 26 25 29 28 22 16 29 25 31 33 33 33 38 37 33 30 24 20 16 18 16
23 20 18 18 18 20 20 20 20 21 17 18 18 23 33 30 31 30 27 28 20 17 22 19 25 25 31 32 27 22 20 29 29 37 37 36 39 31 28 31 23 22 25 32 25
19 20 19 20 20 21 23 21 22 25 24 24 22 26 26 42 40 38 32 27 28 28 24 25 27 26 37 38 32 26 28 31 27 31 32 38 43 36 34 32 33 36 39 36 29
21 24 25 23 26 26 24 24 28 27 28 28 33 29 32 31 41 48 49 37 37 36 35 39 33 26 39 34 34 30 28 32 34 35 34 39 41 38 37 35 34 33 34 32 35
27 26 24 25 26 27 28 30 32 34 35 36 35 35 33 34 34 45 51 49 40 43 41 43 42 32 37 39 41 39 35 40 38 35 36 37 41 37 37 38 36 36 29 26 26
28 29 33 32 30 30 31 33 37 38 40 39 38 38 35 31 40 37 42 53 52 46 45 49 46 45 38 43 38 39 38 43 40 37 40 38 37 40 38 39 41 37 33 25 32
32 32 33 34 35 37 38 40 40 41 44 42 43 39 37 34 33 31 36 45 57 62 57 46 43 49 43 41 39 41 44 43 47 45 43 41 39 39 40 41 39 37 36 28 29
36 37 39 38 37 37 38 41 42 41 43 42 41 39 39 40 40 37 41 35 51 57 60 44 43 52 52 42 36 38 43 41 47 49 48 46 44 40 39 43 38 32 36 25 24
43 42 42 42 41 41 41 42 42 42 44 44 44 38 36 40 41 40 40 36 39 47 54 64 62 43 58 48 34 45 47 46 39 37 41 47 39 40 45 40 36 35 34 22 23
Wind_Direction
317 311 309 312 314 315 317 307 294 286 282 279 278 276 268 261 259 258 248 241 232 222 222 210 215 221 222 226 230 242 250 243 246 265 271 291 319 326 4 23 22 356 330 324 330
309 305 303 304 305 310 310 310 312 307 294 283 277 275 275 267 257 259 248 239 235 226 224 220 215 224 227 234 240 251 250 250 205 266 265 269 334 340 313 282 325 337 318 320 324
299 296 296 296 298 298 298 298 303 306 308 304 288 278 272 267 261 249 248 242 234 230 227 225 225 224 231 240 251 253 245 207 190 231 257 255 302 294 289 263 317 338 297 319 312
303 303 301 297 293 291 290 287 295 306 310 303 305 288 272 267 253 245 239 241 237 232 230 229 227 227 232 233 238 241 218 196 190 219 244 254 263 279 280 291 317 316 306 305 298
305 306 307 307 304 297 287 287 286 293 302 315 299 297 278 262 246 244 237 230 233 233 231 230 225 220 220 220 223 221 204 194 191 219 236 248 254 259 273 287 310 309 299 297 297
301 300 300 299 300 299 299 291 286 288 292 301 308 286 284 277 250 250 241 232 226 228 229 228 225 221 222 220 212 207 202 203 207 222 238 246 255 272 281 293 302 298 284 284 298
291 290 291 291 291 293 295 294 292 287 288 293 298 290 275 272 262 256 243 233 227 224 224 227 231 228 226 222 220 217 214 214 222 240 248 262 271 280 284 292 292 286 287 299 303
288 286 285 285 286 284 285 287 291 292 291 289 287 287 286 267 264 260 252 237 232 223 224 228 230 230 232 226 224 229 230 232 224 234 253 263 271 279 280 293 293 287 285 293 293
285 285 284 282 282 280 280 281 284 287 288 286 284 281 281 274 256 250 253 242 238 227 226 231 229 227 225 232 233 237 248 247 227 231 246 251 258 265 278 288 293 289 286 293 290
289 289 286 282 280 278 278 279 279 278 282 284 282 278 272 266 262 246 245 246 238 234 232 232 233 227 229 235 244 250 243 214 145 211 263 258 265 265 293 308 280 306 289 289 293
296 293 289 283 282 282 280 276 273 273 280 278 275 270 267 258 259 251 248 244 241 238 237 233 235 237 236 241 237 233 241 239 200 188 244 271 282 303 304 287 280 295 295 292 296
301 302 298 290 287 284 282 278 274 273 269 272 270 263 268 260 258 258 253 243 239 235 234 236 233 232 231 226 227 222 224 232 199 208 256 259 274 282 285 282 282 297 293 286 279
295 290 288 290 289 290 282 281 279 279 273 263 269 263 265 269 253 253 254 249 238 235 237 229 230 225 226 222 222 225 228 215 223 232 243 245 250 256 273 278 275 284 272 267 279
289 278 285 284 284 287 289 288 287 282 279 267 268 263 263 261 252 239 241 242 241 236 234 222 231 235 232 233 222 218 220 199 211 233 252 270 253 265 277 281 290 300 302 292 342
280 279 277 281 279 280 285 288 289 298 290 268 261 252 252 257 259 249 240 239 238 232 238 218 227 227 226 222 221 220 207 204 219 236 241 258 265 277 281 287 292 295 295 300 328
277 279 280 277 272 278 286 292 296 296 295 249 252 226 220 217 252 256 248 239 236 238 237 223 231 232 235 225 219 218 212 215 209 232 240 251 258 263 269 280 278 284 289 299 309
275 271 274 276 280 293 297 300 295 286 280 252 251 264 258 235 198 276 256 254 245 240 242 230 234 243 241 240 221 220 227 224 222 225 233 234 243 258 266 276 288 286 285 288 305
269 272 275 268 280 295 292 298 297 284 274 268 260 259 258 250 214 214 277 245 253 248 239 232 226 231 238 236 230 233 227 223 223 226 228 239 250 263 269 273 273 292 270 290 303
271 273 279 278 277 279 285 298 301 295 276 259 255 246 229 233 233 227 226 222 244 271 253 244 231 232 223 214 223 238 231 220 224 234 241 240 246 259 265 271 286 296 288 287 305
276 274 278 283 287 283 290 293 303 296 297 285 266 252 234 225 240 230 229 223 222 244 261 248 244 219 206 210 207 210 222 221 225 232 242 247 248 258 268 278 286 288 288 298 317
267 273 273 281 288 285 279 290 304 289 288 294 284 269 261 232 237 236 232 232 227 229 233 236 253 200 213 219 216 218 207 220 230 242 249 243 251 259 267 275 281 285 289 297 310
275 274 276 285 283 284 292 290 286 288 285 286 283 281 271 259 242 246 247 239 224 227 227 231 230 221 211 215 222 218 214 225 225 234 248 243 249 258 265 271 281 284 297 300 298
277 277 278 282 281 281 280 287 288 281 282 267 278 284 278 275 261 245 243 238 239 218 226 229 233 231 207 212 219 229 221 218 223 233 245 243 248 259 267 269 279 289 301 307 302
268 276 283 285 283 284 280 281 279 281 286 274 281 285 278 281 272 263 243 237 244 243 229 225 227 235 227 214 223 224 215 224 221 236 244 248 258 262 265 271 279 280 291 281 296
269 270 272 279 279 279 280 279 274 275 283 278 284 291 281 277 256 253 263 237 244 250 247 222 229 226 233 223 227 221 228 215 223 230 239 247 249 253 259 264 276 274 286 287 297
276 276 279 278 277 275 278 279 276 277 279 277 287 286 273 271 269 262 261 258 234 239 256 240 227 225 228 225 224 236 232 230 228 231 236 241 249 255 260 263 270 286 297 284 306
274 276 277 275 275 274 274 275 279 278 282 281 282 282 267 272 272 270 270 261 247 244 243 248 236 224 227 217 225 232 232 231 234 242 245 244 250 250 258 265 269 276 283 291 307